Terminal Aerodrome Forecast
Issued by NWS Pueblo, CO

Home | Current Version | Previous Version | Text Only | Print | Product List | Glossary On
Versions: 1 2 3 4 5 6 7 8 9 10 11 12 13 14 15 16 17 18 19 20 21 22 23 24 25 26 27 28 29 30 31 32 33 34 35 36 37 38 39 40 41 42 43 44 45
000
FTUS45 KPUB 290122 AAA
TAFCOS
TAF AMD
KCOS 290122Z 2901/2924 31012G22KT P6SM FEW120 SCT200
     FM290400 34007KT P6SM FEW120 SCT200
     FM291400 36015G25KT P6SM BKN030
     FM291700 02012G22KT 4SM -SN BKN020 OVC030=

USA.gov is the U.S. government's official web portal to all federal, state and local government web resources and services.